| time (UTC) | temp C | wind direction | speed KPH | gust KPH | rain 1hr cm | rain 24hr cm | rain mn cm | humidity % | barometer mb |
| 20260503004548 | -17 | 13 | 1.6 | 6.4 | 0.00 | 0.00 | 0.00 | 1012.4 | |
| 20260503003046 | -17 | 360 | 0.0 | 6.4 | 0.00 | 0.00 | 0.00 | 1013.0 | |
| 20260503001544 | -17 | 32 | 0.0 | 3.2 | 0.00 | 0.00 | 0.00 | 1013.2 | |
| 20260503000041 | -17 | 32 | 0.0 | 6.4 | 0.00 | 0.00 | 0.00 | 1013.8 | |
| 20260502234538 | -17 | 32 | 0.0 | 0.0 | 0.00 | 0.00 | 0.00 | 1013.8 | |
| 20260502233036 | -17 | 30 | 0.0 | 1.6 | 0.00 | 0.00 | 0.00 | 1013.9 | |
| 20260502231522 | -17 | 30 | 0.0 | 4.8 | 0.00 | 0.00 | 0.00 | 1013.5 | |
| 20260502230018 | -17 | 34 | 0.0 | 1.6 | 0.00 | 0.00 | 0.00 | 1013.4 | |
| 20260502224513 | -17 | 36 | 0.0 | 4.8 | 0.00 | 0.00 | 0.00 | 1013.5 | |
| 20260502223010 | -17 | 24 | 1.6 | 6.4 | 0.00 | 0.00 | 0.00 | 1013.5 | |
| 20260502221509 | -17 | 89 | 0.0 | 4.8 | 0.00 | 0.00 | 0.00 | 1013.7 | |
| 20260502220004 | -17 | 128 | 0.0 | 4.8 | 0.00 | 0.00 | 0.00 | 1014.0 | |
| 20260502214559 | -17 | 27 | 0.0 | 4.8 | 0.00 | 0.00 | 0.00 | 1014.3 | |
| 20260502213053 | -17 | 40 | 0.0 | 6.4 | 0.00 | 0.00 | 0.00 | 1013.9 | |
| 20260502211552 | -17 | 24 | 0.0 | 6.4 | 0.00 | 0.00 | 0.00 | 1014.0 | |
| 20260502210050 | -17 | 33 | 0.0 | 6.4 | 0.00 | 0.00 | 0.00 | 1014.2 | |
| 20260502204551 | -17 | 10 | 1.6 | 9.7 | 0.00 | 0.00 | 0.00 | 1014.1 | |
| 20260502203045 | -17 | 5 | 1.6 | 8.0 | 0.00 | 0.00 | 0.00 | 1014.4 | |
| 20260502201535 | -17 | 20 | 0.0 | 6.4 | 0.00 | 0.00 | 0.00 | 1014.3 | |
| 20260502200031 | -17 | 11 | 3.2 | 11.3 | 0.00 | 0.00 | 0.00 | 1014.6 | |
| 20260502194532 | -17 | 5 | 1.6 | 6.4 | 0.00 | 0.00 | 0.00 | 1014.6 | |
| 20260502193023 | -17 | 11 | 0.0 | 4.8 | 0.00 | 0.00 | 0.00 | 1014.5 | |
| 20260502191519 | -17 | 11 | 1.6 | 6.4 | 0.00 | 0.00 | 0.00 | 1014.5 | |
| 20260502190015 | -17 | 5 | 0.0 | 4.8 | 0.00 | 0.00 | 0.00 | 1014.4 | |
| 20260502184510 | -17 | 5 | 0.0 | 9.7 | 0.00 | 0.00 | 0.00 | 1014.4 | |
| 20260502183006 | -17 | 12 | 1.6 | 9.7 | 0.00 | 0.00 | 0.00 | 1014.4 | |
| 20260502181511 | -17 | 5 | 1.6 | 6.4 | 0.00 | 0.00 | 0.00 | 1014.4 | |
| 20260502163046 | -17 | 34 | 0.0 | 9.7 | 0.00 | 0.00 | 0.00 | 1014.9 | |
| 20260502161533 | -17 | 24 | 0.0 | 8.0 | 0.00 | 0.00 | 0.00 | 1015.0 | |
| 20260502151528 | -17 | 330 | 0.0 | 11.3 | 0.00 | 0.00 | 0.00 | 1015.5 | |
| 20260502123038 | -17 | 53 | 0.0 | 6.4 | 0.00 | 0.00 | 0.00 | 1017.0 | |
| 20260502121528 | -17 | 5 | 1.6 | 11.3 | 0.00 | 0.00 | 0.00 | 1017.1 | |
| 20260502114520 | -17 | 17 | 3.2 | 9.7 | 0.00 | 0.00 | 0.00 | 1017.2 | |
| 20260502113016 | -17 | 5 | 1.6 | 12.9 | 0.00 | 0.00 | 0.00 | 1017.3 | |
| 20260502111513 | -17 | 285 | 1.6 | 14.5 | 0.00 | 0.00 | 0.00 | 1017.3 | |
| 20260502110017 | -17 | 173 | 0.0 | 6.4 | 0.00 | 0.00 | 0.00 | 1017.4 | |
| 20260502104504 | -17 | 294 | 1.6 | 9.7 | 0.00 | 0.00 | 0.00 | 1017.4 | |
| 20260502103113 | -17 | 172 | 0.0 | 8.0 | 0.00 | 0.00 | 0.00 | 1017.5 | |
| 20260502101612 | -17 | 205 | 1.6 | 11.3 | 0.00 | 0.00 | 0.00 | 1017.6 | |
| 20260502100123 | -17 | 323 | 0.0 | 9.7 | 0.00 | 0.00 | 0.00 | 1017.7 | |
| 20260502071511 | -17 | 145 | 3.2 | 12.9 | 0.00 | 0.00 | 0.00 | 1018.3 | |
| 20260502070006 | -17 | 161 | 1.6 | 12.9 | 0.00 | 0.00 | 0.00 | 1018.5 | |
| 20260502064501 | -17 | 207 | 3.2 | 12.9 | 0.00 | 0.00 | 0.00 | 1018.2 | |
| 20260502063107 | -17 | 105 | 0.0 | 11.3 | 0.00 | 0.00 | 0.00 | 1018.2 | |
| 20260502061612 | -17 | 157 | 3.2 | 9.7 | 0.00 | 0.00 | 0.00 | 1018.1 | |
| 20260502060051 | -17 | 128 | 3.2 | 11.3 | 0.00 | 0.00 | 0.00 | 1018.1 | |
| 20260502054546 | -17 | 130 | 0.0 | 9.7 | 0.00 | 0.00 | 0.00 | 1018.1 | |
| 20260502053042 | -17 | 128 | 0.0 | 4.8 | 0.00 | 0.00 | 0.00 | 1018.2 | |
| 20260502051539 | -17 | 144 | 0.0 | 6.4 | 0.00 | 0.00 | 0.00 | 1018.2 | |
| 20260502050034 | -17 | 130 | 0.0 | 6.4 | 0.00 | 0.00 | 0.00 | 1018.3 | |
| 20260502044531 | -17 | 128 | 0.0 | 6.4 | 0.00 | 0.00 | 0.00 | 1018.2 | |
| 20260502043026 | -17 | 132 | 0.0 | 4.8 | 0.00 | 0.00 | 0.00 | 1018.2 | |
| 20260502041529 | -17 | 127 | 0.0 | 4.8 | 0.00 | 0.00 | 0.00 | 1018.3 | |
| 20260502040019 | -17 | 121 | 0.0 | 4.8 | 0.00 | 0.00 | 0.00 | 1018.4 | |
| 20260502034515 | -17 | 130 | 0.0 | 4.8 | 0.00 | 0.00 | 0.00 | 1018.6 | |
| 20260502033022 | -17 | 127 | 0.0 | 4.8 | 0.00 | 0.00 | 0.00 | 1018.7 | |
| 20260502031507 | -17 | 130 | 0.0 | 3.2 | 0.00 | 0.00 | 0.00 | 1018.7 | |
| 20260502030003 | -17 | 129 | 0.0 | 1.6 | 0.00 | 0.00 | 0.00 | 1018.8 | |
| 20260502024606 | -17 | 129 | 0.0 | 0.0 | 0.00 | 0.00 | 0.00 | 1018.8 | |
| 20260502023055 | -17 | 129 | 0.0 | 3.2 | 0.00 | 0.00 | 0.00 | 1018.9 | |
| 20260502021553 | -17 | 128 | 0.0 | 1.6 | 0.00 | 0.00 | 0.00 | 1019.1 | |
| 20260502020047 | -17 | 129 | 0.0 | 3.2 | 0.00 | 0.00 | 0.00 | 1019.1 | |
| 20260502014543 | -17 | 129 | 0.0 | 3.2 | 0.00 | 0.00 | 0.00 | 1019.2 | |
| 20260502013040 | -17 | 129 | 0.0 | 3.2 | 0.00 | 0.00 | 0.00 | 1019.3 | |
| 20260502011539 | -17 | 129 | 0.0 | 1.6 | 0.00 | 0.00 | 0.00 | 1019.5 | |
| 20260502010031 | -17 | 129 | 0.0 | 0.0 | 0.00 | 0.00 | 0.00 | 1019.6 |